Showing default

NUSAT-38 (MARIA AGNESI), 56202

Orbit data source: Space-Track

NUSAT-38 (MARIA AGNESI), 56202 is a payload satellite owned by URUGUS S.A. (AR) in SSO that was launched on Sat, 15 Apr 2023 UTC via an FALCON 9 launch vehicle from the Air Force Western Test Range (AFWTR). Payload-class satellites include a variety of spacecraft equipped with specific instruments for various scientific and technological missions. These include communications satellites like Starlink; space stations such as the ISS; scientific satellites like the Hubble; Earth observation satellites from companies like Planet Labs, Umbra, and HawkEye 360; GPS; miniature CubeSats for education and research; and military/defense satellites.

Loading next visibility...
Identifier
56202, 2023-054AA
Orbit
SSO
Last TLE update
7 hours ago
Origin
Manufacturer
URUGUS S.A.
Mission
Operational Commercial Imaging
Bus & Motor
NEWSAT V, Unknown motor
Mass
41.5 kg wet, 38.5 kg dry
Launch date (UTC)
2023-04-15 (2 years ago)
Launch vehicle
FALCON 9
Launch site
Air Force Western Test Range (AFWTR)
Object type
Payload
Rocket body
Debris
Shape & HBR
Box, 0.813 m
Radar Cross Section
0.542 m², Medium (>0.1 m² and < 1m²)

Expand to show TLE details & history

TLE from 7 hours ago
0 NUSAT-38 (MARIA AGNESI)
1 56202U 23054AA  25192.18527174  .00011638  00000-0  28886-3 0  9997
2 56202  97.3286  96.3486 0012595 215.0407 145.0012 15.40427342125945
Epoch: 2025-07-11T04:26Z
TLE epoch observation values (Epoch: 2025-07-11T04:26:47.478Z)
Latitude
-0.00001°
Longitude
100.30995°
Altitude
455.012 km
Speed
7.636 km/s
True Right ascension
06h 25m 23s
True Declination
0° 00' 00"
Sunlit
Object was in daylight at epoch
Visualization orbit readout
Latitude
-75.81241°
Longitude
131.0133°
Altitude
469.088 km
Speed
7.632 km/s
Apparent Right ascension
11h 18m 35s
Apparent Declination
-60° 40' 31"
Sunlit
Object is in daylight
Visualization observer readout
Local Sidereal Time
00:12:22
Azimuth
162.583° S
Elevation
-67.635°
Doppler factor
1
Orbital elements
Apogee altitude
450.372 km
Perigee altitude
433.193 km
Semi-major axis
6,819.919 km
Eccentricity
0.00126
Inclination
97.3286°
RAAN
96.3486°
Arg. of periapsis
215.0407°
True anomaly
Unknown
Mean anomaly
145.0012°
Eccentric anomaly
Unknown
Mean motion
3.85367 °/min
Orbital period
93.42 mins
BSTAR
0.00028886
Loading maneuver chart data...
Loading SW <> Apogee altitude chart data...
Loading historical data...
Loading historical data...
Loading historical data...
Loading historical data...
Loading historical data...
Loading historical data...
Loading historical data...

NUSAT-38 (MARIA AGNESI) Visibility forecast

Observer location: undefined°, undefined°

Span
Click to sort rows by Start time (UTC) header in descending order
Start Az.
Max El. time (UTC)
Max El. Az.
Max El.
End time (UTC)
End Az.
5 mins2025-07-11 17:03:15.881Z128.735° SE2025-07-11 17:06:15.881Z66.052° ENE23.231°2025-07-11 17:08:15.881Z21.499° NNE
4 mins2025-07-12 05:58:15.881Z49.182° ENE2025-07-12 06:00:15.881Z104.861° ESE25.052°2025-07-12 06:02:15.881Z151.41° SSE
|